Location: Invercargill
(46.4000°S, 168.3500°E)
Time: 12:10:30
(UTC+13:00)

YAOGAN 6 - Pass Details

Date: 24 January 2019
Orbit: 468 x 505 km, 97.1° (Epoch: 16 February)

Event Time Altitude Azimuth Distance (km) Brightness Sun altitude
Rises 22:11:09 0° 175° (S) 2,624 6.8 -6.7°
Reaches altitude 10° 22:13:21 10° 183° (S) 1,725 6.0 -7.0°
Maximum altitude 22:16:49 39° 251° (WSW) 764 4.3 -7.5°
Drops below altitude 10° 22:20:13 10° 321° (NW) 1,679 5.3 -8.0°
Sets 22:22:20 0° 328° (NNW) 2,545 6.1 -8.3°
